Карточка аэропорта UWGG

Внимание!
Информация на этой странице в стадии наполнения.
Если вы не увидели какой-то информации, или заметили неточность - пожалуйста сообщите нам!
Спасибо!
Команда RU-STAFF
Название аэропортаСтригино
Название аэропорта (англ.)Strigino
Превышение256 ft. (78 m.)
Координаты56°13.8', 43°47.202'
Высота перехода5000 ft
Эшелон переходаQNH>=1013hPa:FL060; QNH<1013hPa:FL070; QNH<977hPa:FL080
Коды ответчика2120-2147
Зона ОрВДМосква РПИ (UUWV)
Данные METARUWGG 131900Z 00000MPS CAVOK 18/13 Q1014 R18L/090070 NOSIG
Проноз погоды (TAF)UWGG 131656Z 1318/1418 16003G09MPS 9999 SCT040 TX28/1412Z TN16/1403Z PROB40 TEMPO 1318/1321 -TSRA BKN014CB
NOTAMshow/hide NOTAM
AWOS   TABLE

Информация о ВПП

ВПП Длина ВПП (м.) Покрытие Курс ВПП Частота ILS
18L3000Цементобетон179108.1
18R2806Асфальтобетон179109.9
36R3000Цементобетон359110.5
36L2806Асфальтобетон359109.5

Диспетчерские позиции

Позывной Наименование органа УВД Частота
UWGG_TWRНижний-Вышка120.400
UWGG_R_APPНижний-Круг120.800
UWGG_APPНижний-Подход124.700
UWGG_GNDНижний-Руление121.800



Спутниковое изображение